Regional Weather Roundup
Issued by NWS

Home | Current Version | Previous Version | Graphics & Text | Print | Product List | Glossary Off
Versions: 1 2 3 4 5 6 7 8 9 10 11 12 13 14 15 16 17 18 19 20 21 22 23 24 25 26 27 28 29 30 31 32 33 34 35 36 37 38 39 40 41 42 43 44 45 46 47 48 49 50

000
ASUS43 KMPX 232010
RWRMN
WEATHER ROUNDUP FOR MINNESOTA
NATIONAL WEATHER SERVICE TWIN CITIES/CHANHASSEN MN
300 PM CDT THU OCT 23 2014


NOTE: "FAIR" INDICATES FEW OR NO CLOUDS BELOW 12,000 FEET WITH NO
SIGNIFICANT WEATHER AND/OR OBSTRUCTIONS TO VISIBILITY. N/A MEANS
CURRENT SKY AND/OR WEATHER CONDITIONS ARE NOT AVAILABLE.

MNZ060>063-068>070-232100-
   Twin Cities Metro

CITY           SKY/WX    TMP DP  RH WIND       PRES   REMARKS
TWIN CITIES    SUNNY     66  48  52 SW6       29.96F
ST PAUL        SUNNY     66  50  56 S5        29.96F
CRYSTAL        SUNNY     67  48  50 W6        29.95F
BLAINE         SUNNY     68  54  60 W7        29.95F
LAKEVILLE      SUNNY     64  50  59 W3        29.96F
EDEN PRAIRIE   SUNNY     66  49  54 MISG      29.95F
SOUTH ST PAUL  SUNNY     66  51  58 SE6       29.95F
LAKE ELMO      FAIR      63  54  72 S3        29.97S
$$
MNZ001>005-007-008-013>017-022>024-027-028-232100-
   Northwest Minnesota

CITY           SKY/WX    TMP DP  RH WIND       PRES   REMARKS
BEMIDJI        SUNNY     67  37  33 W12       29.87F
HALLOCK        SUNNY     66  39  37 SW13      29.79F
ROSEAU         MOSUNNY   66  43  42 SW15      29.81S
WARROAD        MOSUNNY   64  46  52 SW12G22   29.81F
THIEF RVR FALL SUNNY     64  43  45 S9        29.84F
CROOKSTON      SUNNY     64  46  52 S13       29.84F
FOSSTON        SUNNY     66  45  45 SW12      29.87F
DETROIT LAKES  SUNNY     66  39  37 SW9       29.90F
MOORHEAD       SUNNY     70  34  26 SW12      29.87F
PARK RAPIDS    SUNNY     67  38  34 SW13      29.90F
MAHNOMEN       FAIR      66  39  37 SW15      29.87F
$$
MNZ006-009>011-018-025>026-232100-
   North Central Minnesota

CITY           SKY/WX    TMP DP  RH WIND       PRES   REMARKS
BAUDETTE       SUNNY     66  40  38 SW14G23   29.81F
FLAG ISLAND    PTSUNNY   57  46  67 S12       29.77F
INTL FALLS     SUNNY     67  42  40 SW10G18   29.83F
WASKISH        SUNNY     63  45  51 SW9       29.85F
BIG FORK       SUNNY     66  45  45 SW9       29.88F
LONGVILLE      SUNNY     66  45  45 SW7       29.90F
GRAND RAPIDS   SUNNY     63  48  59 S8        29.90F
CRANE LAKE     MOSUNNY   63  48  59 SW8       29.88F
ORR            SUNNY     64  43  45 S8        29.85F
COOK           SUNNY     63  48  59 S8        29.89F
WALKER         FAIR      64  44  48 SW10      29.88F
$$
MNZ012-019>021-037-232100-
   Northeast Minnesota

CITY           SKY/WX    TMP DP  RH WIND       PRES   REMARKS
DULUTH         CLOUDY    54  47  77 W9        29.94F
ELY            SUNNY     57  46  67 S6        29.91S
HIBBING        MOSUNNY   58  49  72 S7        29.92F
EVELETH        PTSUNNY   54  48  82 S7        29.93S
DULUTH HARBOR  CLOUDY    55  52  88 SW9       29.96S
TWO HARBORS    CLOUDY    55  43  62 S7        29.92F
SILVER BAY     MOSUNNY   54  50  87 S5        29.92F
GRAND MARAIS     N/A     48  47  96 W3        29.95F
G MARAIS ARPRT FOG       45  43  93 CALM      29.94S VSB 1/4
$$
MNZ029>031-032-039>041-046>048-054>057-064-232100-
   West Central Minnesota

CITY           SKY/WX    TMP DP  RH WIND       PRES   REMARKS
FERGUS FALLS   SUNNY     68  39  34 SW7       29.90F
WHEATON        SUNNY     70  37  30 SW9       29.91F
MORRIS         SUNNY     70  45  40 S8        29.91F
ALEXANDRIA     SUNNY     66  42  41 SW9       29.93F
ELBOW LAKE     FAIR      68  40  36 SW12      29.91F
WADENA         SUNNY     66  39  37 SW8       29.90F
GLENWOOD       SUNNY     68  43  40 SW8       29.94F
APPLETON       SUNNY     73  30  20 W8        29.92F
BENSON         SUNNY     68  45  42 SW5       29.93F
ORTONVILLE     SUNNY     72  36  26 SW9       29.91F
MADISON        SUNNY     73  36  25 SW9       29.93F
WILLMAR          N/A     70  37  30 W9        29.96F
$$
MNZ033>034-036-042>043-049>051-058-059-232100-
   Central Minnesota

CITY           SKY/WX    TMP DP  RH WIND       PRES   REMARKS
ST CLOUD       SUNNY     67  50  54 SW8       29.94F
SAUK CENTRE    FAIR      67  40  36 W8        29.94F
PAYNESVILLE    SUNNY     65  38  37 SW9       29.95F
AITKIN         SUNNY     66  52  59 S5        29.91F
PINE RIVER     SUNNY     64  46  52 W7        29.94F
BRAINERD       SUNNY     64  46  52 SW6       29.92F
STAPLES        SUNNY     66  39  37 SW8       29.91F
LONG PRAIRIE   FAIR      66  41  39 SW7       29.93F
LITTLE FALLS   SUNNY     64  45  48 SW5       29.93F
LITCHFIELD     SUNNY     70  43  37 W10       29.96F
BUFFALO        SUNNY     64  50  61 S6        29.97F
MAPLE LAKE     SUNNY     66  53  63 SW5       29.97S
$$
MNZ037-044-045-052-053-232100-
   East Central Minnesota

CITY           SKY/WX    TMP DP  RH WIND       PRES   REMARKS
PRINCETON      SUNNY     66  52  59 CALM      29.95F
MORA           SUNNY     61  50  67 SW3       29.96F
CAMBRIDGE      SUNNY     66  52  59 W5        29.93F
RUSH CITY      SUNNY     63  51  65 CALM      29.95F
MOOSE LAKE     SUNNY     59  50  72 S3        29.93S
HINCKLEY       FAIR      59  52  77 S3        29.95F
CLOQUET        PTSUNNY   55  48  76 S3        29.94F
MCGREGOR       SUNNY     61  50  67 SW6       29.93F
$$
MNZ071>073-080-081-089-090-097-098-232100-
   Southwest Minnesota

CITY           SKY/WX    TMP DP  RH WIND       PRES   REMARKS
MONTEVIDEO     SUNNY     73  52  46 W5        29.94F
GRANITE FALLS  SUNNY     71  39  32 S8        29.95F
CANBY          SUNNY     71  38  30 SW12      29.94F
MARSHALL       SUNNY     72  37  28 SW13      29.94F
REDWOOD FALLS  SUNNY     71  38  29 VRB7      29.95F
OLIVIA         SUNNY     70  41  35 W9        29.95F
PIPESTONE      SUNNY     66  48  52 SW9       29.97F
WINDOM         SUNNY     72  32  23 W9G18     29.97F
WORTHINGTON    SUNNY     68  37  32 W9        29.99F
JACKSON        SUNNY     70  32  24 W10       29.99F
TRACY          SUNNY     71  37  29 SW7       29.96F
SLAYTON        SUNNY     67  43  41 SW10      29.99F
$$
MNZ065>067-074>077-082>085-091>093-232100-
   South Central Minnesota

CITY           SKY/WX    TMP DP  RH WIND       PRES   REMARKS
MANKATO        SUNNY     70  43  37 W10       29.97F
NEW ULM        SUNNY     70  43  37 W9        29.96F
ST JAMES       SUNNY     72  34  25 W7G16     29.97F
FAIRMONT       MOSUNNY   72  12  10 W10       29.98F
GLENCOE        SUNNY     69  50  51 W7        29.95F
FARIBAULT      SUNNY     66  54  63 CALM      29.98S
OWATONNA       SUNNY     64  52  63 W6        29.98S
WASECA         SUNNY     68  39  34 W9        29.99F
ALBERT LEA     SUNNY     68  48  49 W7        29.98F
$$
MNZ078>079-086>088-094>096-232100-
   Southeast Minnesota

CITY           SKY/WX    TMP DP  RH WIND       PRES   REMARKS
ROCHESTER      CLOUDY    56  51  84 CALM      30.01F
RED WING       CLOUDY    57  52  82 SE5       29.98F
STANTON        SUNNY     64  51  63 S3        29.96F
DODGE CENTER   SUNNY     59  54  82 CALM      29.99F
WINONA         CLOUDY    54  50  87 CALM      30.02F
AUSTIN         SUNNY     61  52  72 CALM      29.99F
PRESTON        CLOUDY    51  49  93 CALM      30.01F FOG
$$
ABBREVIATIONS USED IN REMARKS
   TC - TEMPERATURES IN CELSIUS
  WCI - WIND CHILL INDEX
   HX - HEAT INDEX
  VSB - VISIBILITY
$$



USA.gov is the U.S. government's official web portal to all federal, state and local government web resources and services.